Tracking 19176 objects as of 25-May-2018
HD Live streaming from Space Station
objects crossing your sky now

NIMIQ 2

Track NIMIQ 2 now!
NIMIQ 2 is classified as:


NORAD ID: 27632
Int'l Code: 2002-062A
Perigee: 36,011.6 km
Apogee: 36,036.9 km
Inclination: 2.7 °
Period: 1,447.9 minutes
Semi major axis: 42395 km
RCS: 29.9526 m2 (large)
Launch date: December 29, 2002
Source: Canada (CA)
Launch site: TYURATAM MISSILE AND SPACE COMPLEX (TTMTR)

Television broadcast; 32 Ku-band, 2 Ka-band.
aabbcc
Your satellite tracking list
Your tracking list is empty




NASA's NSSDC Master Catalog

Two Line Element Set (TLE):
1 27632U 02062A   18144.45350261 +.00000062 +00000-0 +00000-0 0  9992
2 27632 002.7117 080.4663 0002973 245.5234 114.1318 00.99455132014678
Source of the keplerian elements: AFSPC